Hinesville, GA

10:27 PM EDT on August 30, 2016 (GMT -0400)
Wright Army Air Field

Weather History for KLHW - July, 2013

Change the Weather History Date:

Monday, July 1, 2013

  Actual Average Record
Temperature  
Mean Temperature 78 °F -  
Max Temperature 82 °F 92 °F 101 °F (1977)
Min Temperature 73 °F 70 °F 66 °F (1973)
Cooling Degree Days 12    
Growing Degree Days 28 (Base 50)    
Moisture  
Dew Point 75 °F    
Average Humidity 96    
Maximum Humidity 100    
Minimum Humidity 79    
Precipitation  
Precipitation 0.06 in - - ()
Sea Level Pressure  
Sea Level Pressure 29.89 in    
Wind  
Wind Speed 4 mph (SSE)    
Max Wind Speed 9 mph    
Max Gust Speed -    
Visibility 10 miles    
Events Rain    
Averages and records for this station are not official NWS values.
T = Trace of Precipitation, MM = Missing Value Source: NWS Daily Summary

Daily Weather History Graph

Daily Weather History Graph

Search for Another Location

Airport or City:

Trip Planner

Search our weather history database for the weather conditions in past years. The results will help you decide how hot, cold, wet, or windy it might be!

Date:

Astronomy

Jul. 01, 2013 Rise Set
Actual Time 6:24 AM EDT 8:36 PM EDT
Civil Twilight 5:56 AM EDT 9:04 PM EDT
Nautical Twilight 5:21 AM EDT 9:38 PM EDT
Astronomical Twilight 4:44 AM EDT 10:15 PM EDT
Moon 1:39 AM EDT (7/1) 3:01 PM EDT (7/1)
Length of Visible Light 15h 08m
Length of Day
14h 11m
Waning Crescent, 35% of the Moon is Illuminated
Jul 1
Waning Crescent
Jul 8
New
Jul 15
First Quarter
Jul 22
Full
Jul 29
Last Quarter

Hourly Weather History & Observations

Time (EDT) Temp. Heat Index Dew Point Humidity Pressure Visibility Wind Dir Wind Speed Gust Speed Precip Events Conditions
12:07 AM 75.2 °F - 75.2 °F 100% 29.83 in 10.0 mi SE 2.3 mph - N/A   Overcast
12:19 AM 75.2 °F - 75.2 °F 100% 29.83 in 9.0 mi South 2.3 mph - N/A Rain Light Rain
12:24 AM 75.2 °F - 75.2 °F 100% 29.83 in 9.0 mi SSE 3.5 mph - N/A Rain Light Rain
12:34 AM 75.2 °F - 75.2 °F 100% 29.83 in 6.0 mi Calm Calm - N/A Rain Heavy Rain
12:43 AM 75.2 °F - 75.2 °F 100% 29.83 in 10.0 mi SE 2.3 mph - N/A   Overcast
12:48 AM 75.2 °F - 75.2 °F 100% 29.83 in 10.0 mi SE 2.3 mph - N/A   Overcast
12:53 AM 75.2 °F - 75.2 °F 100% 29.83 in 10.0 mi SSE 3.5 mph - N/A   Overcast
12:58 AM 75.6 °F - 75.6 °F 100% 29.84 in 10.0 mi South 3.5 mph - 0.03 in   Overcast
1:03 AM 75.2 °F - 75.2 °F 100% 29.83 in 10.0 mi SSE 3.5 mph - N/A   Overcast
1:23 AM 75.2 °F - 75.2 °F 100% 29.83 in 10.0 mi Variable 2.3 mph - N/A   Overcast
1:26 AM 75.2 °F - 75.2 °F 100% 29.83 in 10.0 mi Variable 2.3 mph - N/A Rain Light Rain
1:46 AM 75.2 °F - 75.2 °F 100% 29.82 in 9.0 mi SE 3.5 mph - N/A Rain Light Rain
1:52 AM 75.2 °F - 75.2 °F 100% 29.82 in 10.0 mi SE 5.8 mph - N/A   Overcast
1:58 AM 75.6 °F - 75.6 °F 100% 29.83 in 10.0 mi SE 5.8 mph - 0.01 in   Overcast
2:48 AM 75.2 °F - 75.2 °F 100% 29.82 in 10.0 mi SSE 4.6 mph - N/A   Overcast
2:58 AM 75.2 °F - 75.2 °F 100% 29.82 in 10.0 mi SSE 4.6 mph - N/A   Overcast
3:43 AM 75.2 °F - 75.2 °F 100% 29.82 in 10.0 mi South 4.6 mph - N/A   Overcast
3:58 AM 74.7 °F - 74.7 °F 100% 29.83 in 10.0 mi South 5.8 mph - N/A   Overcast
4:58 AM 74.5 °F - 74.5 °F 100% 29.83 in 10.0 mi South 4.6 mph - N/A   Overcast
5:58 AM 74.5 °F - 74.5 °F 100% 29.85 in 10.0 mi South 4.6 mph - N/A   Overcast
6:48 AM 73.4 °F - 73.4 °F 100% 29.85 in 10.0 mi South 4.6 mph - N/A   Overcast
6:58 AM 74.3 °F - 74.3 °F 100% 29.86 in 10.0 mi South 4.6 mph - N/A   Mostly Cloudy
7:23 AM 75.2 °F - 75.2 °F 100% 29.86 in 10.0 mi South 4.6 mph - N/A   Overcast
7:28 AM 75.2 °F - 75.2 °F 100% 29.87 in 10.0 mi South 3.5 mph - N/A   Overcast
7:33 AM 75.2 °F - 75.2 °F 100% 29.87 in 10.0 mi South 5.8 mph - N/A   Overcast
7:58 AM 74.8 °F - 74.8 °F 100% 29.89 in 10.0 mi South 4.6 mph - N/A   Overcast
8:58 AM 75.2 °F - 75.2 °F 100% 29.91 in 10.0 mi South 5.8 mph - N/A   Overcast
9:58 AM 77.2 °F - 76.1 °F 96% 29.91 in 10.0 mi SSW 3.5 mph - N/A   Overcast
10:08 AM 78.8 °F - 75.2 °F 89% 29.90 in 10.0 mi SSE 5.8 mph - N/A   Overcast
10:38 AM 80.6 °F 86.2 °F 75.2 °F 84% 29.89 in 10.0 mi Variable 5.8 mph - N/A   Mostly Cloudy
10:43 AM 80.6 °F 86.2 °F 75.2 °F 84% 29.89 in 10.0 mi SSE 2.3 mph - N/A   Mostly Cloudy
10:53 AM 80.6 °F 86.2 °F 75.2 °F 84% 29.90 in 10.0 mi SSW 5.8 mph - N/A   Mostly Cloudy
10:58 AM 81.0 °F 87.1 °F 75.7 °F 84% 29.91 in 10.0 mi SW 5.8 mph - N/A   Mostly Cloudy
11:33 AM 80.6 °F 87.1 °F 77.0 °F 89% 29.90 in 10.0 mi SSE 6.9 mph - N/A   Mostly Cloudy
11:43 AM 80.6 °F 87.1 °F 77.0 °F 89% 29.90 in 10.0 mi SE 6.9 mph - N/A   Mostly Cloudy
11:48 AM 80.6 °F 87.1 °F 77.0 °F 89% 29.90 in 10.0 mi SSE 4.6 mph - N/A   Mostly Cloudy
11:58 AM 81.3 °F 87.8 °F 75.7 °F 83% 29.91 in 10.0 mi SSE 6.9 mph - N/A   Overcast
12:08 PM 82.4 °F 89.5 °F 75.2 °F 79% 29.90 in 10.0 mi SE 6.9 mph - N/A   Mostly Cloudy
12:28 PM 80.6 °F 86.2 °F 75.2 °F 84% 29.90 in 10.0 mi SSE 5.8 mph - N/A   Mostly Cloudy
12:58 PM 82.4 °F 89.8 °F 75.7 °F 80% 29.90 in 10.0 mi South 8.1 mph - N/A   Scattered Clouds
1:58 PM 81.5 °F 88.3 °F 75.9 °F 83% 29.90 in 7.0 mi South 3.5 mph - N/A   Mostly Cloudy
2:16 PM 80.6 °F 87.1 °F 77.0 °F 89% 29.89 in 3.0 mi SSE 4.6 mph - N/A Rain Light Rain
2:31 PM 78.8 °F - 75.2 °F 89% 29.89 in 9.0 mi SSE 8.1 mph - N/A Rain Light Rain
2:41 PM 77.0 °F - 75.2 °F 94% 29.89 in 10.0 mi SSE 5.8 mph - N/A Rain Light Rain
2:56 PM 75.2 °F - 75.2 °F 100% 29.89 in 8.0 mi South 5.8 mph - N/A Rain Light Rain
2:58 PM 75.9 °F - 75.0 °F 97% 29.90 in 8.0 mi South 5.8 mph - 0.01 in Rain Light Rain
3:03 PM 75.2 °F - 75.2 °F 100% 29.89 in 7.0 mi South 2.3 mph - N/A Rain Light Rain
3:19 PM 77.0 °F - 77.0 °F 100% 29.89 in 10.0 mi SE 6.9 mph - N/A   Partly Cloudy
3:58 PM 77.0 °F - 76.5 °F 98% 29.91 in 10.0 mi South 5.8 mph - 0.01 in   Overcast
4:58 PM 76.5 °F - 75.6 °F 97% 29.92 in 10.0 mi SE 5.8 mph - N/A   Mostly Cloudy
5:13 PM 77.0 °F - 75.2 °F 94% 29.91 in 10.0 mi SE 6.9 mph - N/A   Overcast
5:25 PM 75.2 °F - 75.2 °F 100% 29.90 in 10.0 mi SE 6.9 mph - N/A   Light Drizzle
5:35 PM 75.2 °F - 75.2 °F 100% 29.90 in 10.0 mi SE 5.8 mph - N/A   Light Drizzle
5:38 PM 75.2 °F - 75.2 °F 100% 29.90 in 10.0 mi SE 5.8 mph - N/A   Overcast
5:58 PM 75.7 °F - 75.7 °F 100% 29.91 in 10.0 mi SSE 5.8 mph - 0.00 in   Mostly Cloudy
6:13 PM 75.2 °F - 75.2 °F 100% 29.90 in 10.0 mi SSE 9.2 mph - N/A   Mostly Cloudy
6:18 PM 75.2 °F - 75.2 °F 100% 29.90 in 10.0 mi SSE 5.8 mph - N/A   Scattered Clouds
6:33 PM 75.2 °F - 75.2 °F 100% 29.90 in 10.0 mi South 6.9 mph - N/A   Mostly Cloudy
6:43 PM 75.2 °F - 75.2 °F 100% 29.91 in 10.0 mi South 5.8 mph - N/A   Mostly Cloudy
6:58 PM 75.7 °F - 75.2 °F 98% 29.93 in 10.0 mi Variable 5.8 mph - N/A   Overcast
7:58 PM 75.4 °F - 75.2 °F 99% 29.95 in 10.0 mi South 5.8 mph - N/A   Mostly Cloudy
8:08 PM 75.2 °F - 75.2 °F 100% 29.95 in 10.0 mi SSE 8.1 mph - N/A   Mostly Cloudy
8:58 PM 74.7 °F - 73.8 °F 97% 29.97 in 10.0 mi South 8.1 mph - N/A   Mostly Cloudy
9:58 PM 74.1 °F - 73.6 °F 98% 29.98 in 10.0 mi South 5.8 mph - N/A   Scattered Clouds
10:58 PM 73.8 °F - 73.4 °F 99% 29.99 in 10.0 mi South 3.5 mph - N/A   Mostly Cloudy
11:13 PM 73.4 °F - 73.4 °F 100% 29.99 in 10.0 mi SSW 2.3 mph - N/A   Mostly Cloudy
11:14 PM 73.4 °F - 73.4 °F 100% 29.99 in 10.0 mi SSW 2.3 mph - N/A   Light Drizzle
11:54 PM 73.4 °F - 73.4 °F 100% 30.01 in 10.0 mi South 2.3 mph - N/A Rain Light Rain
11:58 PM 73.6 °F - 73.6 °F 100% 30.02 in 10.0 mi SSE 2.3 mph - 0.00 in Rain Light Rain